When you browse on this site, cookies collect data to enhance your experience and personalize the content and advertising you see.
Visit our Privacy Policy to learn more. By continuing to use the site, you agree to this use of cookies and data.
  • In Switzerland
  • List of Countries
  • For 7 days
  • Water Temperature
  • Weather Map
  • Weather Widgets
  • user-avatar
    Login

    Hourly Weather Lohne

    Today, 7 June, Sunday

    Time Temperature Precipitation Wind Pressure Humidity
    00:00 +8°C° 0 mm 3 mps 745 mmHg 83%
    01:00 +8°C° 0 mm 3 mps 745 mmHg 87%
    02:00 +7°C° 0 mm 3 mps 745 mmHg 87%
    03:00 +7°C° 0 mm 3 mps 745 mmHg 87%
    04:00 +7°C° 0 mm 3 mps 745 mmHg 87%
    05:00 +7°C° 0 mm 4 mps 745 mmHg 82%
    06:00 +9°C° 0 mm 5 mps 745 mmHg 77%
    07:00 +10°C° 0 mm 6 mps 745 mmHg 72%
    08:00 +11°C° 0 mm 6 mps 745 mmHg 70%
    09:00 +12°C° 0 mm 7 mps 746 mmHg 69%
    10:00 +14°C° 0 mm 7 mps 746 mmHg 67%
    11:00 +15°C° 0.1 mm 7 mps 746 mmHg 64%
    12:00 +16°C° 0.1 mm 6 mps 747 mmHg 61%
    13:00 +17°C° 0.1 mm 6 mps 747 mmHg 58%
    14:00 +17°C° 0.2 mm 6 mps 747 mmHg 58%
    15:00 +17°C° 0.2 mm 5 mps 747 mmHg 57%
    16:00 +17°C° 0.2 mm 5 mps 748 mmHg 57%
    17:00 +17°C° 0.3 mm 4 mps 748 mmHg 65%
    18:00 +16°C° 0.3 mm 3 mps 748 mmHg 73%
    19:00 +15°C° 0.3 mm 2 mps 749 mmHg 80%
    20:00 +14°C° 0 mm 2 mps 749 mmHg 83%
    21:00 +12°C° 0 mm 1 mps 750 mmHg 86%
    22:00 +10°C° 0 mm 1 mps 751 mmHg 88%
    23:00 +10°C° 0 mm 1 mps 751 mmHg 89%

    Tomorrow, 8 June, Monday

    Time Temperature Precipitation Wind Pressure Humidity
    00:00 +9°C° 0 mm 1 mps 751 mmHg 90%
    01:00 +9°C° 0 mm 1 mps 751 mmHg 91%
    02:00 +9°C° 0 mm 1 mps 751 mmHg 91%
    03:00 +8°C° 0 mm 1 mps 751 mmHg 92%
    04:00 +8°C° 0 mm 1 mps 751 mmHg 92%
    05:00 +10°C° 0 mm 1 mps 751 mmHg 90%
    06:00 +11°C° 0 mm 1 mps 752 mmHg 87%
    07:00 +13°C° 0 mm 1 mps 752 mmHg 84%
    08:00 +14°C° 0.1 mm 1 mps 752 mmHg 79%
    09:00 +15°C° 0.1 mm 1 mps 752 mmHg 74%
    10:00 +18°C° 0.1 mm 1 mps 753 mmHg 69%
    11:00 +18°C° 0.4 mm 1 mps 752 mmHg 68%
    12:00 +19°C° 0.4 mm 1 mps 752 mmHg 68%
    13:00 +19°C° 0.4 mm 1 mps 752 mmHg 67%
    14:00 +19°C° 0.6 mm 1 mps 752 mmHg 68%
    15:00 +19°C° 0.6 mm 2 mps 752 mmHg 69%
    16:00 +19°C° 0.6 mm 2 mps 752 mmHg 71%
    17:00 +18°C° 0.5 mm 2 mps 752 mmHg 75%
    18:00 +17°C° 0.5 mm 2 mps 752 mmHg 79%
    19:00 +16°C° 0.5 mm 3 mps 752 mmHg 84%
    20:00 +14°C° 0 mm 3 mps 753 mmHg 88%
    21:00 +12°C° 0 mm 3 mps 753 mmHg 91%
    22:00 +11°C° 0 mm 3 mps 754 mmHg 95%
    23:00 +10°C° 0 mm 3 mps 754 mmHg 96%

    Day after tomorrow, 9 June, Tuesday

    Time Temperature Precipitation Wind Pressure Humidity
    00:00 +9°C° 0 mm 3 mps 754 mmHg 96%
    01:00 +8°C° 0 mm 3 mps 754 mmHg 97%
    02:00 +8°C° 0 mm 3 mps 754 mmHg 97%
    03:00 +7°C° 0 mm 3 mps 754 mmHg 97%
    04:00 +7°C° 0 mm 2 mps 754 mmHg 97%
    05:00 +8°C° 0 mm 3 mps 755 mmHg 95%
    06:00 +9°C° 0 mm 3 mps 755 mmHg 93%
    07:00 +10°C° 0 mm 3 mps 755 mmHg 91%
    08:00 +12°C° 0 mm 2 mps 755 mmHg 87%
    09:00 +13°C° 0 mm 2 mps 756 mmHg 84%
    10:00 +14°C° 0 mm 2 mps 756 mmHg 81%
    11:00 +15°C° 0 mm 2 mps 756 mmHg 79%
    12:00 +16°C° 0 mm 2 mps 755 mmHg 77%
    13:00 +16°C° 0 mm 2 mps 755 mmHg 75%
    14:00 +17°C° 0 mm 3 mps 755 mmHg 74%
    15:00 +17°C° 0 mm 3 mps 755 mmHg 74%
    16:00 +18°C° 0 mm 4 mps 755 mmHg 73%
    17:00 +17°C° 0 mm 3 mps 755 mmHg 75%
    18:00 +17°C° 0 mm 3 mps 755 mmHg 77%
    19:00 +16°C° 0 mm 3 mps 755 mmHg 80%
    20:00 +14°C° 0 mm 3 mps 755 mmHg 84%
    21:00 +12°C° 0 mm 3 mps 756 mmHg 88%
    22:00 +10°C° 0 mm 3 mps 756 mmHg 92%
    23:00 +10°C° 0 mm 3 mps 756 mmHg 89%

    10 June, Wednesday

    Time Temperature Precipitation Wind Pressure Humidity
    00:00 +9°C° 0 mm 3 mps 756 mmHg 87%
    01:00 +9°C° 0 mm 3 mps 756 mmHg 84%
    02:00 +9°C° 0 mm 3 mps 756 mmHg 85%
    03:00 +9°C° 0 mm 2 mps 755 mmHg 86%
    04:00 +9°C° 0 mm 2 mps 755 mmHg 87%
    05:00 +10°C° 0 mm 2 mps 755 mmHg 87%
    06:00 +12°C° 0 mm 2 mps 755 mmHg 87%
    07:00 +13°C° 0 mm 2 mps 755 mmHg 87%
    08:00 +13°C° 0 mm 3 mps 755 mmHg 85%
    09:00 +14°C° 0 mm 3 mps 755 mmHg 82%
    10:00 +16°C° 0 mm 3 mps 755 mmHg 80%
    11:00 +17°C° 0.1 mm 4 mps 755 mmHg 76%
    12:00 +18°C° 0.1 mm 4 mps 755 mmHg 71%
    13:00 +20°C° 0.1 mm 4 mps 754 mmHg 67%
    14:00 +20°C° 0.3 mm 4 mps 754 mmHg 67%
    15:00 +20°C° 0.3 mm 4 mps 754 mmHg 66%
    16:00 +20°C° 0.3 mm 4 mps 753 mmHg 66%
    17:00 +20°C° 0.2 mm 4 mps 753 mmHg 70%
    18:00 +19°C° 0.2 mm 4 mps 753 mmHg 73%
    19:00 +18°C° 0.2 mm 3 mps 753 mmHg 77%
    20:00 +17°C° 0 mm 3 mps 753 mmHg 82%
    21:00 +14°C° 0 mm 3 mps 753 mmHg 86%
    22:00 +13°C° 0 mm 3 mps 754 mmHg 91%
    23:00 +12°C° 0 mm 3 mps 753 mmHg 91%

    11 June, Thursday

    Time Temperature Precipitation Wind Pressure Humidity
    00:00 +11°C° 0 mm 3 mps 753 mmHg 92%
    01:00 +11°C° 0 mm 3 mps 753 mmHg 93%
    02:00 +10°C° 0 mm 3 mps 753 mmHg 94%
    03:00 +10°C° 0 mm 3 mps 753 mmHg 95%
    04:00 +10°C° 0 mm 3 mps 753 mmHg 96%
    05:00 +11°C° 0 mm 3 mps 753 mmHg 93%
    06:00 +12°C° 0 mm 3 mps 753 mmHg 91%
    07:00 +13°C° 0 mm 3 mps 753 mmHg 88%
    08:00 +14°C° 0 mm 3 mps 752 mmHg 84%
    09:00 +15°C° 0 mm 4 mps 752 mmHg 80%
    10:00 +17°C° 0 mm 4 mps 752 mmHg 76%
    11:00 +17°C° 0 mm 4 mps 752 mmHg 78%
    12:00 +16°C° 0 mm 3 mps 751 mmHg 80%
    13:00 +16°C° 0 mm 3 mps 751 mmHg 82%
    14:00 +16°C° 0 mm 3 mps 751 mmHg 81%
    15:00 +16°C° 0 mm 3 mps 751 mmHg 80%
    16:00 +17°C° 0 mm 3 mps 750 mmHg 78%
    17:00 +17°C° 0 mm 3 mps 750 mmHg 79%
    18:00 +17°C° 0 mm 3 mps 750 mmHg 79%
    19:00 +18°C° 0 mm 3 mps 750 mmHg 80%
    20:00 +16°C° 0 mm 2 mps 750 mmHg 84%
    21:00 +15°C° 0 mm 2 mps 750 mmHg 89%
    22:00 +13°C° 0 mm 2 mps 750 mmHg 94%
    23:00 +13°C° 0 mm 2 mps 750 mmHg 94%

    12 June, Friday

    Time Temperature Precipitation Wind Pressure Humidity
    00:00 +13°C° 0 mm 2 mps 749 mmHg 94%
    01:00 +12°C° 0 mm 1 mps 749 mmHg 95%
    02:00 +12°C° 0 mm 2 mps 749 mmHg 95%
    03:00 +12°C° 0 mm 2 mps 749 mmHg 95%
    04:00 +12°C° 0 mm 2 mps 749 mmHg 95%
    05:00 +13°C° 0 mm 2 mps 749 mmHg 92%
    06:00 +14°C° 0 mm 2 mps 749 mmHg 89%
    07:00 +16°C° 0 mm 3 mps 749 mmHg 85%
    08:00 +18°C° 0 mm 3 mps 748 mmHg 80%
    09:00 +19°C° 0 mm 3 mps 748 mmHg 74%
    10:00 +21°C° 0 mm 3 mps 748 mmHg 68%
    11:00 +22°C° 0 mm 3 mps 748 mmHg 65%
    12:00 +24°C° 0 mm 3 mps 747 mmHg 62%
    13:00 +25°C° 0 mm 3 mps 747 mmHg 58%
    14:00 +25°C° 0 mm 3 mps 747 mmHg 58%
    15:00 +26°C° 0 mm 3 mps 747 mmHg 58%
    16:00 +26°C° 0 mm 3 mps 747 mmHg 58%
    17:00 +25°C° 0.2 mm 3 mps 747 mmHg 66%
    18:00 +24°C° 0.2 mm 3 mps 747 mmHg 73%
    19:00 +22°C° 0.2 mm 3 mps 747 mmHg 81%
    20:00 +20°C° 0.1 mm 3 mps 747 mmHg 85%
    21:00 +19°C° 0.1 mm 2 mps 747 mmHg 88%
    22:00 +17°C° 0.1 mm 2 mps 747 mmHg 92%
    23:00 +17°C° 0.1 mm 2 mps 747 mmHg 93%
    Show more